OneWeb SL0025

operational
NORAD ID: 45138 Int'l Des: 2020-008 Owner: ONEWEB Country: UK Constellation: oneweb
LEOCIRCULARPOLARONEWEB_TYPE

Über OneWeb SL0025

Beschreibung wird geladen...

Live-Position

3D-Globus wird geladen...

Nächste Überflüge

Höhenverlauf

Altitude vs Time

uPlot chart will show altitude changes over time

Zweizeiliger Elementsatz

1 45138U 20008H 25257.56410867 -.00000524 00000-0 -15370-2 0 9990
2 45138 87.8753 91.2024 0001935 69.2750 290.8585 13.10372533272473
Epoch: 14. Sept. 2025 • Age: 18 hours

Aktueller Status

Höhe 1240.3 km
Geschwindigkeit 7.23 km/s
Subsatellitenpunkt -44.73°S, 171.03°E
Startdatum 6. Feb. 2020
Alter 5.6 years
Typ internet

Technische Details

Klassifizierung Payload
Masse 148.00 kg
Trockenmasse 140.00 kg
Gesamtmasse 148.00 kg
Länge 1.30 m
Durchmesser 1.00 m
Spannweite 5.00 m
Form Trapezoid+2 pan
Hersteller ONEWUS
Bus-Typ ARROW
Phasenstatus In Orbit
Besitzer/Staat ONEWEB/UK

Große Konstellationen

Loading constellations...